EW2835 Weather Reports


time (UTC)temp
C
wind
direction
speed
KPH
gust
KPH
rain 1hr
cm
rain 24hr
cm
rain mn
cm
humidity
%
barometer
mb
20260902210008 13 320 0.0 0.0 0.00 0.00 0.00 89 1018.5
20260902204513 13 320 0.0 0.0 0.00 0.00 0.00 89 1018.3
20260902203008 13 320 0.0 0.0 0.00 0.00 0.00 88 1018.3
20260902201505 13 320 0.0 0.0 0.00 0.00 0.00 87 1018.2
20260902200006 14 320 0.0 0.0 0.00 0.00 0.00 87 1018.2
20260902194509 14 320 0.0 0.0 0.00 0.00 0.00 86 1018.3
20260902193005 15 320 0.0 0.0 0.00 0.00 0.00 85 1018.2
20260902191503 15 320 0.0 0.0 0.00 0.00 0.00 84 1018.2
20260902190004 15 320 0.0 0.0 0.00 0.00 0.00 82 1018.3
20260902184502 16 320 0.0 0.0 0.00 0.00 0.00 81 1018.4
20260902183109 16 320 0.0 0.0 0.00 0.00 0.00 79 1018.3
20260902181501 17 320 0.0 0.0 0.00 0.00 0.00 77 1018.2
20260902180122 17 320 0.0 1.6 0.00 0.00 0.00 75 1018.1
20260902174600 18 320 0.0 0.0 0.00 0.00 0.00 73 1018.0
20260902173100 19 320 0.0 0.0 0.00 0.00 0.00 70 1017.9
20260902171559 19 320 0.0 3.2 0.00 0.00 0.00 69 1018.0
20260902170058 20 308 1.6 4.8 0.00 0.00 0.00 69 1018.0
20260902164559 20 301 0.0 1.6 0.00 0.00 0.00 70 1018.0
20260902163101 20 287 1.6 12.9 0.00 0.00 0.00 63 1018.2
20260902160040 21 192 3.2 8.0 0.00 0.00 0.00 60 1018.0
20260902154539 21 203 1.6 6.4 0.00 0.00 0.00 61 1018.1
20260902153039 21 100 0.0 11.3 0.00 0.00 0.00 61 1018.1
20260902151537 21 142 0.0 4.8 0.00 0.00 0.00 60 1018.2
20260902150035 21 157 4.8 9.7 0.00 0.00 0.00 57 1018.2
20260902144535 21 308 1.6 6.4 0.00 0.00 0.00 61 1018.3
20260902143033 21 281 4.8 12.9 0.00 0.00 0.00 59 1018.4
20260902141536 21 203 1.6 6.4 0.00 0.00 0.00 61 1018.6
20260902140030 21 165 0.0 6.4 0.00 0.00 0.00 60 1018.6
20260902134529 21 270 0.0 14.5 0.00 0.00 0.00 61 1018.7
20260902133030 21 157 0.0 4.8 0.00 0.00 0.00 60 1018.8
20260902131529 21 280 1.6 8.0 0.00 0.00 0.00 60 1018.9
20260902130026 21 160 1.6 11.3 0.00 0.00 0.00 60 1019.0
20260902124526 21 291 1.6 9.7 0.00 0.00 0.00 60 1019.0
20260902123025 21 182 0.0 6.4 0.00 0.00 0.00 61 1019.0
20260902121524 22 277 1.6 12.9 0.00 0.00 0.00 57 1019.2
20260902120023 22 263 1.6 12.9 0.00 0.00 0.00 59 1019.2
20260902114526 21 360 1.6 11.3 0.00 0.00 0.00 62 1019.4
20260902113020 21 285 3.2 11.3 0.00 0.00 0.00 59 1019.4
20260902111520 21 284 1.6 16.1 0.00 0.00 0.00 59 1019.6
20260902110018 21 293 3.2 9.7 0.00 0.00 0.00 62 1019.7
20260902104528 20 294 1.6 9.7 0.00 0.00 0.00 62 1019.7
20260902103016 21 238 4.8 17.7 0.00 0.00 0.00 58 1019.7
20260902101514 22 195 6.4 14.5 0.00 0.00 0.00 60 1019.8
20260902100013 21 248 0.0 9.7 0.00 0.00 0.00 61 1019.9
20260902094517 20 337 0.0 9.7 0.00 0.00 0.00 66 1020.0
20260902093009 21 107 1.6 11.3 0.00 0.00 0.00 65 1020.0
20260902091506 20 279 0.0 4.8 0.00 0.00 0.00 69 1020.0
20260902090005 20 277 3.2 11.3 0.00 0.00 0.00 69 1020.0
20260902084504 20 256 1.6 8.0 0.00 0.00 0.00 70 1020.1
20260902083107 18 250 0.0 9.7 0.00 0.00 0.00 73 1020.1
20260902081530 18 156 0.0 11.3 0.00 0.00 0.00 74 1020.3
20260902080032 19 306 1.6 8.0 0.00 0.00 0.00 73 1020.2
20260902074525 18 140 1.6 6.4 0.00 0.00 0.00 76 1020.0
20260902073021 17 218 3.2 9.7 0.00 0.00 0.00 80 1019.9
20260902071525 17 207 0.0 6.4 0.00 0.00 0.00 83 1019.9
20260902070019 16 187 0.0 9.7 0.00 0.00 0.00 86 1019.9
20260902064510 15 147 0.0 3.2 0.00 0.00 0.00 91 1019.9
20260902063013 14 173 0.0 4.8 0.00 0.00 0.00 94 1019.9
20260902061505 13 178 0.0 3.2 0.00 0.00 0.00 94 1020.0
20260902060014 13 156 0.0 4.8 0.00 0.00 0.00 95 1019.9
20260902054604 13 195 0.0 0.0 0.00 0.00 0.00 95 1020.0
20260902053057 13 155 0.0 3.2 0.00 0.00 0.00 96 1020.0
20260902051556 12 182 0.0 3.2 0.00 0.00 0.00 96 1020.0
20260902050058 11 196 0.0 1.6 0.00 0.00 0.00 95 1020.0
20260902044545 11 204 0.0 0.0 0.00 0.00 0.00 95 1020.0
20260902043042 11 204 0.0 0.0 0.00 0.00 0.00 95 1020.0
20260902041550 10 202 0.0 0.0 0.00 0.00 0.00 94 1019.8
20260902040038 10 196 0.0 0.0 0.00 0.00 0.00 94 1019.6
20260902034536 11 196 0.0 0.0 0.00 0.03 0.00 94 1019.4
20260902033041 11 196 0.0 0.0 0.00 0.03 0.00 94 1019.1
20260902031535 11 196 0.0 0.0 0.00 0.03 0.00 93 1019.1
20260902030031 11 196 0.0 0.0 0.00 0.03 0.00 93 1019.2
20260902024529 11 196 0.0 0.0 0.00 0.05 0.00 93 1019.2
20260902023026 12 196 0.0 0.0 0.00 0.05 0.00 93 1019.3
20260902021532 12 196 0.0 0.0 0.00 0.05 0.00 93 1019.4
20260902020023 12 196 0.0 0.0 0.00 0.05 0.00 93 1019.4
20260902014533 12 196 0.0 0.0 0.00 0.05 0.00 93 1019.4
20260902013020 12 196 0.0 0.0 0.00 0.05 0.00 93 1019.4
20260902011532 13 201 0.0 0.0 0.00 0.05 0.00 92 1019.4
20260902010022 13 201 0.0 0.0 0.00 0.05 0.00 92 1019.3
20260902004618 13 201 0.0 0.0 0.00 0.08 0.00 92 1019.2
20260902003012 13 201 0.0 1.6 0.00 0.08 0.00 92 1019.2
20260902001513 13 201 0.0 0.0 0.00 0.08 0.00 91 1019.1
20260902000009 14 202 0.0 1.6 0.00 0.08 0.00 90 1019.0
20260901234518 14 201 0.0 0.0 0.00 0.08 0.00 90 1019.0
20260901233004 15 201 0.0 0.0 0.00 0.08 0.00 89 1018.9
20260901231505 15 254 0.0 1.6 0.00 0.08 0.00 89 1018.9
20260901230002 15 258 0.0 0.0 0.00 0.08 0.00 88 1018.9
20260901224559 15 254 0.0 3.2 0.00 0.08 0.00 88 1018.9
20260901223112 15 202 0.0 1.6 0.00 0.08 0.00 87 1018.9
20260901221554 16 267 0.0 3.2 0.00 0.08 0.00 86 1018.8
20260901220059 16 296 0.0 6.4 0.00 0.08 0.00 86 1018.7
20260901214550 16 239 0.0 3.2 0.00 0.08 0.08 84 1018.6
20260901213050 16 297 0.0 1.6 0.00 0.08 0.08 83 1018.6
20260901211554 16 297 0.0 6.4 0.00 0.08 0.08 83 1018.5